| time (UTC) | temp C | wind direction | speed KPH | gust KPH | rain 1hr cm | rain 24hr cm | rain mn cm | humidity % | barometer mb |
| 20260831030704 | 31 | 197 | 3.2 | 4.8 | 0.00 | 0.00 | 0.00 | 58 | 1015.8 |
| 20260831030203 | 31 | 242 | 1.6 | 3.2 | 0.00 | 0.00 | 0.00 | 58 | 1016.2 |
| 20260831025702 | 31 | 199 | 3.2 | 4.8 | 0.00 | 0.00 | 0.00 | 57 | 1016.2 |
| 20260831025157 | 31 | 169 | 6.4 | 8.0 | 0.00 | 0.00 | 0.00 | 57 | 1015.8 |
| 20260831024653 | 31 | 125 | 3.2 | 3.2 | 0.00 | 0.00 | 0.00 | 57 | 1015.8 |
| 20260831024151 | 31 | 211 | 6.4 | 9.7 | 0.00 | 0.00 | 0.00 | 57 | 1015.8 |
| 20260831023649 | 31 | 182 | 0.0 | 1.6 | 0.00 | 0.00 | 0.00 | 57 | 1015.8 |
| 20260831023143 | 31 | 134 | 11.3 | 17.7 | 0.00 | 0.00 | 0.00 | 57 | 1015.8 |
| 20260831022633 | 31 | 170 | 1.6 | 1.6 | 0.00 | 0.00 | 0.00 | 57 | 1015.5 |
| 20260831022128 | 31 | 113 | 4.8 | 4.8 | 0.00 | 0.00 | 0.00 | 56 | 1015.2 |
| 20260831021627 | 31 | 102 | 1.6 | 3.2 | 0.00 | 0.00 | 0.00 | 57 | 1015.2 |
| 20260831021122 | 31 | 115 | 1.6 | 8.0 | 0.00 | 0.00 | 0.00 | 57 | 1015.5 |
| 20260831020618 | 32 | 359 | 1.6 | 3.2 | 0.00 | 0.00 | 0.00 | 57 | 1015.2 |
| 20260831020113 | 32 | 162 | 4.8 | 8.0 | 0.00 | 0.00 | 0.00 | 57 | 1015.2 |
| 20260831015609 | 32 | 109 | 4.8 | 8.0 | 0.00 | 0.00 | 0.00 | 56 | 1015.2 |
| 20260831015109 | 32 | 148 | 8.0 | 11.3 | 0.00 | 0.00 | 0.00 | 56 | 1015.2 |
| 20260831014603 | 32 | 122 | 8.0 | 11.3 | 0.00 | 0.00 | 0.00 | 56 | 1014.8 |
| 20260831014059 | 32 | 170 | 12.9 | 12.9 | 0.00 | 0.00 | 0.00 | 55 | 1014.8 |
| 20260831013555 | 32 | 154 | 4.8 | 8.0 | 0.00 | 0.00 | 0.00 | 55 | 1014.5 |
| 20260831013054 | 32 | 39 | 6.4 | 8.0 | 0.00 | 0.00 | 0.00 | 54 | 1014.8 |
| 20260831012549 | 33 | 258 | 4.8 | 9.7 | 0.00 | 0.00 | 0.00 | 52 | 1014.5 |
| 20260831012044 | 33 | 160 | 11.3 | 14.5 | 0.00 | 0.00 | 0.00 | 48 | 1014.5 |
| 20260831011543 | 33 | 137 | 11.3 | 16.1 | 0.00 | 0.00 | 0.00 | 44 | 1014.5 |
| 20260831011039 | 33 | 153 | 0.0 | 0.0 | 0.00 | 0.00 | 0.00 | 43 | 1014.1 |
| 20260831010534 | 34 | 160 | 0.0 | 1.6 | 0.00 | 0.00 | 0.00 | 43 | 1014.1 |
| 20260831010030 | 34 | 212 | 0.0 | 0.0 | 0.00 | 0.00 | 0.00 | 42 | 1014.1 |
| 20260831005525 | 35 | 189 | 0.0 | 0.0 | 0.00 | 0.00 | 0.00 | 41 | 1014.1 |
| 20260831005024 | 35 | 107 | 0.0 | 0.0 | 0.00 | 0.00 | 0.00 | 41 | 1014.5 |
| 20260831004521 | 35 | 223 | 1.6 | 1.6 | 0.00 | 0.00 | 0.00 | 40 | 1014.5 |
| 20260831004016 | 35 | 152 | 8.0 | 8.0 | 0.00 | 0.00 | 0.00 | 40 | 1014.1 |
| 20260831003512 | 35 | 167 | 3.2 | 3.2 | 0.00 | 0.00 | 0.00 | 40 | 1014.1 |
| 20260831003008 | 35 | 111 | 4.8 | 4.8 | 0.00 | 0.00 | 0.00 | 40 | 1013.8 |
| 20260831002506 | 35 | 230 | 0.0 | 1.6 | 0.00 | 0.00 | 0.00 | 40 | 1014.1 |
| 20260831002001 | 35 | 111 | 1.6 | 1.6 | 0.00 | 0.00 | 0.00 | 40 | 1014.1 |
| 20260831001456 | 35 | 114 | 4.8 | 8.0 | 0.00 | 0.00 | 0.00 | 39 | 1014.1 |
| 20260831000953 | 35 | 162 | 4.8 | 8.0 | 0.00 | 0.00 | 0.00 | 39 | 1014.1 |
| 20260831000449 | 35 | 169 | 4.8 | 4.8 | 0.00 | 0.00 | 0.00 | 40 | 1014.1 |
| 20260830235947 | 36 | 222 | 0.0 | 1.6 | 0.00 | 0.00 | 0.00 | 40 | 1013.8 |
| 20260830235442 | 36 | 166 | 4.8 | 4.8 | 0.00 | 0.00 | 0.00 | 40 | 1014.1 |
| 20260830234938 | 36 | 221 | 3.2 | 4.8 | 0.00 | 0.00 | 0.00 | 39 | 1014.1 |
| 20260830234432 | 36 | 227 | 3.2 | 4.8 | 0.00 | 0.00 | 0.00 | 39 | 1014.1 |
| 20260830233928 | 36 | 148 | 3.2 | 3.2 | 0.00 | 0.00 | 0.00 | 39 | 1014.1 |
| 20260830233424 | 36 | 134 | 11.3 | 12.9 | 0.00 | 0.00 | 0.00 | 39 | 1014.5 |
| 20260830232919 | 36 | 60 | 3.2 | 3.2 | 0.00 | 0.00 | 0.00 | 39 | 1014.1 |
| 20260830232415 | 36 | 194 | 4.8 | 8.0 | 0.00 | 0.00 | 0.00 | 39 | 1014.5 |
| 20260830231912 | 37 | 204 | 3.2 | 3.2 | 0.00 | 0.00 | 0.00 | 39 | 1014.1 |
| 20260830231406 | 36 | 174 | 0.0 | 1.6 | 0.00 | 0.00 | 0.00 | 39 | 1014.1 |
| 20260830230906 | 36 | 248 | 1.6 | 1.6 | 0.00 | 0.00 | 0.00 | 40 | 1014.1 |
| 20260830230401 | 36 | 193 | 1.6 | 3.2 | 0.00 | 0.00 | 0.00 | 39 | 1014.1 |
| 20260830225900 | 36 | 59 | 0.0 | 1.6 | 0.00 | 0.00 | 0.00 | 40 | 1014.1 |
| 20260830225356 | 36 | 149 | 8.0 | 12.9 | 0.00 | 0.00 | 0.00 | 40 | 1014.1 |
| 20260830224850 | 36 | 131 | 8.0 | 11.3 | 0.00 | 0.00 | 0.00 | 40 | 1014.5 |
| 20260830224344 | 37 | 248 | 1.6 | 3.2 | 0.00 | 0.00 | 0.00 | 39 | 1014.1 |
| 20260830223841 | 37 | 156 | 4.8 | 8.0 | 0.00 | 0.00 | 0.00 | 38 | 1014.1 |
| 20260830223337 | 37 | 45 | 0.0 | 0.0 | 0.00 | 0.00 | 0.00 | 38 | 1014.1 |
| 20260830222836 | 37 | 284 | 1.6 | 1.6 | 0.00 | 0.00 | 0.00 | 38 | 1014.1 |
| 20260830222332 | 37 | 138 | 3.2 | 4.8 | 0.00 | 0.00 | 0.00 | 39 | 1014.5 |
| 20260830221827 | 37 | 132 | 8.0 | 9.7 | 0.00 | 0.00 | 0.00 | 37 | 1014.1 |
| 20260830221324 | 37 | 125 | 3.2 | 3.2 | 0.00 | 0.00 | 0.00 | 37 | 1014.5 |
| 20260830220824 | 37 | 337 | 1.6 | 3.2 | 0.00 | 0.00 | 0.00 | 38 | 1014.5 |
| 20260830220324 | 38 | 87 | 9.7 | 11.3 | 0.00 | 0.00 | 0.00 | 37 | 1014.1 |
| 20260830215821 | 37 | 217 | 4.8 | 8.0 | 0.00 | 0.00 | 0.00 | 36 | 1014.5 |
| 20260830215316 | 37 | 212 | 8.0 | 11.3 | 0.00 | 0.00 | 0.00 | 37 | 1014.1 |
| 20260830214811 | 38 | 149 | 8.0 | 9.7 | 0.00 | 0.00 | 0.00 | 35 | 1014.5 |
| 20260830214307 | 38 | 263 | 3.2 | 3.2 | 0.00 | 0.00 | 0.00 | 36 | 1014.5 |
| 20260830213806 | 38 | 220 | 8.0 | 12.9 | 0.00 | 0.00 | 0.00 | 35 | 1014.5 |
| 20260830213301 | 38 | 194 | 4.8 | 4.8 | 0.00 | 0.00 | 0.00 | 35 | 1014.5 |
| 20260830212757 | 38 | 261 | 4.8 | 8.0 | 0.00 | 0.00 | 0.00 | 35 | 1014.5 |
| 20260830212253 | 37 | 174 | 0.0 | 1.6 | 0.00 | 0.00 | 0.00 | 37 | 1014.5 |
| 20260830211752 | 37 | 266 | 4.8 | 4.8 | 0.00 | 0.00 | 0.00 | 37 | 1015.2 |
| 20260830211251 | 37 | 196 | 3.2 | 3.2 | 0.00 | 0.00 | 0.00 | 37 | 1014.8 |
| 20260830210747 | 37 | 271 | 1.6 | 3.2 | 0.00 | 0.00 | 0.00 | 39 | 1014.8 |
| 20260830210246 | 37 | 223 | 6.4 | 8.0 | 0.00 | 0.00 | 0.00 | 38 | 1015.2 |
| 20260830205744 | 37 | 237 | 4.8 | 4.8 | 0.00 | 0.00 | 0.00 | 39 | 1015.2 |
| 20260830205239 | 37 | 223 | 6.4 | 9.7 | 0.00 | 0.00 | 0.00 | 39 | 1015.5 |
| 20260830204734 | 37 | 203 | 8.0 | 9.7 | 0.00 | 0.00 | 0.00 | 38 | 1015.5 |
| 20260830204232 | 37 | 237 | 3.2 | 4.8 | 0.00 | 0.00 | 0.00 | 39 | 1015.5 |
| 20260830203729 | 38 | 204 | 6.4 | 8.0 | 0.00 | 0.00 | 0.00 | 38 | 1015.5 |
| 20260830203219 | 38 | 249 | 1.6 | 1.6 | 0.00 | 0.00 | 0.00 | 37 | 1015.8 |
| 20260830202718 | 37 | 270 | 3.2 | 3.2 | 0.00 | 0.00 | 0.00 | 40 | 1015.8 |
| 20260830202214 | 37 | 9 | 3.2 | 3.2 | 0.00 | 0.00 | 0.00 | 40 | 1015.8 |
| 20260830201713 | 36 | 238 | 6.4 | 8.0 | 0.00 | 0.00 | 0.00 | 41 | 1016.2 |
| 20260830201209 | 36 | 264 | 0.0 | 1.6 | 0.00 | 0.00 | 0.00 | 44 | 1016.2 |
| 20260830200704 | 35 | 228 | 4.8 | 8.0 | 0.00 | 0.00 | 0.00 | 45 | 1016.2 |
| 20260830200203 | 37 | 221 | 6.4 | 9.7 | 0.00 | 0.00 | 0.00 | 40 | 1016.2 |
| 20260830195659 | 37 | 132 | 9.7 | 11.3 | 0.00 | 0.00 | 0.00 | 42 | 1016.2 |
| 20260830195156 | 37 | 261 | 3.2 | 3.2 | 0.00 | 0.00 | 0.00 | 41 | 1016.2 |
| 20260830194655 | 37 | 215 | 8.0 | 11.3 | 0.00 | 0.00 | 0.00 | 41 | 1016.5 |
| 20260830194150 | 36 | 237 | 1.6 | 1.6 | 0.00 | 0.00 | 0.00 | 45 | 1016.2 |
| 20260830193644 | 36 | 101 | 4.8 | 8.0 | 0.00 | 0.00 | 0.00 | 44 | 1016.9 |
| 20260830193139 | 36 | 272 | 4.8 | 4.8 | 0.00 | 0.00 | 0.00 | 44 | 1016.5 |
| 20260830192634 | 36 | 179 | 8.0 | 11.3 | 0.00 | 0.00 | 0.00 | 44 | 1016.9 |
| 20260830192129 | 35 | 188 | 1.6 | 1.6 | 0.00 | 0.00 | 0.00 | 46 | 1016.9 |
| 20260830191625 | 35 | 358 | 1.6 | 1.6 | 0.00 | 0.00 | 0.00 | 46 | 1016.9 |
| 20260830191120 | 36 | 138 | 8.0 | 11.3 | 0.00 | 0.00 | 0.00 | 42 | 1017.2 |
| 20260830190615 | 37 | 354 | 3.2 | 3.2 | 0.00 | 0.00 | 0.00 | 45 | 1017.2 |
| 20260830190109 | 36 | 216 | 1.6 | 1.6 | 0.00 | 0.00 | 0.00 | 45 | 1017.2 |
| 20260830185603 | 35 | 153 | 4.8 | 8.0 | 0.00 | 0.00 | 0.00 | 46 | 1017.2 |
| 20260830185059 | 35 | 293 | 1.6 | 1.6 | 0.00 | 0.00 | 0.00 | 46 | 1017.5 |
| 20260830184558 | 36 | 284 | 3.2 | 4.8 | 0.00 | 0.00 | 0.00 | 45 | 1017.5 |
| 20260830184052 | 35 | 194 | 9.7 | 12.9 | 0.00 | 0.00 | 0.00 | 47 | 1017.5 |
| 20260830183547 | 35 | 208 | 6.4 | 9.7 | 0.00 | 0.00 | 0.00 | 46 | 1017.5 |
| 20260830183043 | 35 | 148 | 4.8 | 8.0 | 0.00 | 0.00 | 0.00 | 48 | 1017.5 |
| 20260830182538 | 35 | 226 | 4.8 | 4.8 | 0.00 | 0.00 | 0.00 | 48 | 1017.9 |
| 20260830182034 | 35 | 173 | 3.2 | 4.8 | 0.00 | 0.00 | 0.00 | 47 | 1017.9 |
| 20260830181531 | 35 | 192 | 1.6 | 1.6 | 0.00 | 0.00 | 0.00 | 49 | 1018.2 |
| 20260830181030 | 34 | 73 | 6.4 | 9.7 | 0.00 | 0.00 | 0.00 | 51 | 1017.9 |
| 20260830180529 | 35 | 162 | 6.4 | 8.0 | 0.00 | 0.00 | 0.00 | 50 | 1018.2 |
| 20260830180028 | 33 | 268 | 6.4 | 9.7 | 0.00 | 0.00 | 0.00 | 50 | 1018.2 |
| 20260830175527 | 34 | 165 | 9.7 | 14.5 | 0.00 | 0.00 | 0.00 | 52 | 1018.2 |
| 20260830175023 | 34 | 267 | 3.2 | 3.2 | 0.00 | 0.00 | 0.00 | 51 | 1018.2 |
| 20260830174519 | 33 | 183 | 1.6 | 3.2 | 0.00 | 0.00 | 0.00 | 53 | 1018.9 |
| 20260830174014 | 34 | 233 | 6.4 | 9.7 | 0.00 | 0.00 | 0.00 | 52 | 1018.5 |
| 20260830173509 | 33 | 256 | 1.6 | 3.2 | 0.00 | 0.00 | 0.00 | 53 | 1018.5 |
| 20260830173004 | 33 | 228 | 3.2 | 3.2 | 0.00 | 0.00 | 0.00 | 54 | 1018.9 |
| 20260830172501 | 33 | 245 | 3.2 | 3.2 | 0.00 | 0.00 | 0.00 | 54 | 1018.9 |
| 20260830171956 | 33 | 191 | 6.4 | 8.0 | 0.00 | 0.00 | 0.00 | 53 | 1018.9 |
| 20260830171451 | 34 | 104 | 4.8 | 8.0 | 0.00 | 0.00 | 0.00 | 51 | 1019.3 |
| 20260830170951 | 32 | 249 | 4.8 | 4.8 | 0.00 | 0.00 | 0.00 | 57 | 1018.9 |
| 20260830170446 | 32 | 233 | 4.8 | 8.0 | 0.00 | 0.00 | 0.00 | 57 | 1019.3 |
| 20260830165944 | 32 | 199 | 6.4 | 9.7 | 0.00 | 0.00 | 0.00 | 58 | 1018.9 |
| 20260830165441 | 32 | 239 | 3.2 | 4.8 | 0.00 | 0.00 | 0.00 | 59 | 1019.3 |
| 20260830164936 | 32 | 271 | 0.0 | 1.6 | 0.00 | 0.00 | 0.00 | 58 | 1019.3 |
| 20260830164432 | 32 | 191 | 3.2 | 3.2 | 0.00 | 0.00 | 0.00 | 59 | 1019.7 |
| 20260830163928 | 32 | 192 | 6.4 | 9.7 | 0.00 | 0.00 | 0.00 | 57 | 1019.3 |
| 20260830163425 | 32 | 239 | 0.0 | 1.6 | 0.00 | 0.00 | 0.00 | 58 | 1019.7 |
| 20260830162924 | 32 | 169 | 4.8 | 4.8 | 0.00 | 0.00 | 0.00 | 60 | 1019.7 |
| 20260830162420 | 32 | 192 | 8.0 | 9.7 | 0.00 | 0.00 | 0.00 | 59 | 1019.7 |
| 20260830161920 | 31 | 165 | 9.7 | 11.3 | 0.00 | 0.00 | 0.00 | 61 | 1019.7 |
| 20260830161420 | 31 | 234 | 4.8 | 4.8 | 0.00 | 0.00 | 0.00 | 60 | 1019.7 |
| 20260830160915 | 31 | 167 | 4.8 | 4.8 | 0.00 | 0.00 | 0.00 | 60 | 1019.7 |
| 20260830160411 | 31 | 230 | 0.0 | 1.6 | 0.00 | 0.00 | 0.00 | 63 | 1019.7 |
| 20260830155906 | 30 | 98 | 1.6 | 3.2 | 0.00 | 0.00 | 0.00 | 65 | 1019.3 |
| 20260830155402 | 31 | 144 | 3.2 | 4.8 | 0.00 | 0.00 | 0.00 | 63 | 1019.7 |
| 20260830154857 | 31 | 160 | 3.2 | 4.8 | 0.00 | 0.00 | 0.00 | 65 | 1019.7 |
| 20260830154353 | 31 | 195 | 1.6 | 3.2 | 0.00 | 0.00 | 0.00 | 64 | 1019.7 |
| 20260830153850 | 31 | 215 | 6.4 | 8.0 | 0.00 | 0.00 | 0.00 | 64 | 1019.3 |
| 20260830153344 | 31 | 233 | 8.0 | 11.3 | 0.00 | 0.00 | 0.00 | 63 | 1019.3 |
| 20260830152843 | 31 | 279 | 9.7 | 11.3 | 0.00 | 0.00 | 0.00 | 65 | 1018.9 |
| 20260830152338 | 31 | 230 | 4.8 | 4.8 | 0.00 | 0.00 | 0.00 | 66 | 1019.3 |
| 20260830151833 | 31 | 41 | 3.2 | 3.2 | 0.00 | 0.00 | 0.00 | 68 | 1019.3 |
| 20260830151332 | 31 | 261 | 6.4 | 8.0 | 0.00 | 0.00 | 0.00 | 68 | 1018.9 |
| 20260830150827 | 30 | 326 | 0.0 | 1.6 | 0.00 | 0.00 | 0.00 | 69 | 1018.9 |
| 20260830150326 | 30 | 197 | 8.0 | 12.9 | 0.00 | 0.00 | 0.00 | 69 | 1018.9 |
| 20260830145821 | 30 | 215 | 6.4 | 11.3 | 0.00 | 0.00 | 0.00 | 71 | 1019.3 |
| 20260830145316 | 29 | 219 | 1.6 | 1.6 | 0.00 | 0.00 | 0.00 | 74 | 1018.9 |
| 20260830144811 | 30 | 193 | 4.8 | 8.0 | 0.00 | 0.00 | 0.00 | 73 | 1018.9 |
| 20260830144307 | 29 | 202 | 1.6 | 1.6 | 0.00 | 0.00 | 0.00 | 75 | 1018.9 |
| 20260830143803 | 30 | 222 | 4.8 | 4.8 | 0.00 | 0.00 | 0.00 | 74 | 1018.9 |
| 20260830143302 | 28 | 246 | 1.6 | 1.6 | 0.00 | 0.00 | 0.00 | 76 | 1018.9 |
| 20260830142756 | 28 | 162 | 3.2 | 4.8 | 0.00 | 0.00 | 0.00 | 78 | 1018.9 |
| 20260830142252 | 28 | 192 | 6.4 | 9.7 | 0.00 | 0.00 | 0.00 | 79 | 1018.9 |
| 20260830141747 | 27 | 278 | 3.2 | 3.2 | 0.00 | 0.00 | 0.00 | 79 | 1019.3 |
| 20260830141242 | 27 | 199 | 6.4 | 8.0 | 0.00 | 0.00 | 0.00 | 80 | 1019.3 |
| 20260830140737 | 27 | 165 | 4.8 | 8.0 | 0.00 | 0.00 | 0.00 | 79 | 1018.9 |
| 20260830140232 | 28 | 206 | 0.0 | 0.0 | 0.00 | 0.00 | 0.00 | 78 | 1018.9 |
| 20260830135726 | 27 | 126 | 3.2 | 3.2 | 0.00 | 0.00 | 0.00 | 80 | 1019.3 |
| 20260830135222 | 27 | 220 | 3.2 | 3.2 | 0.00 | 0.00 | 0.00 | 81 | 1018.9 |
| 20260830134717 | 27 | 177 | 4.8 | 8.0 | 0.00 | 0.00 | 0.00 | 80 | 1019.3 |
| 20260830134212 | 26 | 220 | 4.8 | 4.8 | 0.00 | 0.00 | 0.00 | 82 | 1019.3 |
| 20260830133708 | 27 | 152 | 4.8 | 4.8 | 0.00 | 0.00 | 0.00 | 82 | 1018.9 |
| 20260830133204 | 26 | 193 | 1.6 | 1.6 | 0.00 | 0.00 | 0.00 | 82 | 1018.9 |
| 20260830132659 | 26 | 228 | 1.6 | 1.6 | 0.00 | 0.00 | 0.00 | 82 | 1018.5 |
| 20260830132155 | 26 | 216 | 3.2 | 3.2 | 0.00 | 0.00 | 0.00 | 84 | 1018.9 |
| 20260830131653 | 26 | 204 | 3.2 | 3.2 | 0.00 | 0.00 | 0.00 | 85 | 1018.9 |
| 20260830131148 | 25 | 194 | 1.6 | 3.2 | 0.00 | 0.00 | 0.00 | 86 | 1018.5 |
| 20260830130648 | 25 | 189 | 1.6 | 1.6 | 0.00 | 0.00 | 0.00 | 87 | 1018.5 |
| 20260830130143 | 25 | 246 | 0.0 | 1.6 | 0.00 | 0.00 | 0.00 | 88 | 1018.5 |
| 20260830125643 | 25 | 203 | 1.6 | 1.6 | 0.00 | 0.00 | 0.00 | 88 | 1018.5 |
| 20260830125138 | 25 | 245 | 0.0 | 0.0 | 0.00 | 0.00 | 0.00 | 89 | 1018.5 |
| 20260830124636 | 25 | 232 | 3.2 | 3.2 | 0.00 | 0.00 | 0.00 | 89 | 1018.9 |
| 20260830124131 | 24 | 233 | 0.0 | 1.6 | 0.00 | 0.00 | 0.00 | 89 | 1018.5 |
| 20260830123629 | 24 | 227 | 0.0 | 1.6 | 0.00 | 0.00 | 0.00 | 89 | 1018.2 |
| 20260830123124 | 24 | 220 | 0.0 | 1.6 | 0.00 | 0.00 | 0.00 | 89 | 1018.2 |
| 20260830122621 | 24 | 219 | 0.0 | 1.6 | 0.00 | 0.00 | 0.00 | 89 | 1018.2 |
| 20260830122116 | 24 | 203 | 1.6 | 1.6 | 0.00 | 0.00 | 0.00 | 89 | 1018.2 |
| 20260830121612 | 24 | 247 | 0.0 | 1.6 | 0.00 | 0.00 | 0.00 | 89 | 1017.9 |
| 20260830121111 | 24 | 216 | 1.6 | 3.2 | 0.00 | 0.00 | 0.00 | 89 | 1017.9 |
| 20260830120606 | 24 | 238 | 0.0 | 1.6 | 0.00 | 0.00 | 0.00 | 88 | 1018.2 |
| 20260830115559 | 24 | 212 | 1.6 | 1.6 | 0.00 | 0.00 | 0.00 | 88 | 1018.2 |
| 20260830115054 | 24 | 257 | 1.6 | 1.6 | 0.00 | 0.00 | 0.00 | 88 | 1018.2 |
| 20260830114550 | 24 | 129 | 0.0 | 0.0 | 0.00 | 0.00 | 0.00 | 88 | 1018.2 |
| 20260830114050 | 24 | 242 | 0.0 | 0.0 | 0.00 | 0.00 | 0.00 | 88 | 1017.9 |
| 20260830113545 | 24 | 252 | 0.0 | 0.0 | 0.00 | 0.00 | 0.00 | 88 | 1017.9 |
| 20260830113040 | 24 | 199 | 1.6 | 1.6 | 0.00 | 0.00 | 0.00 | 88 | 1017.9 |
| 20260830112536 | 24 | 218 | 0.0 | 0.0 | 0.00 | 0.00 | 0.00 | 88 | 1017.9 |
| 20260830112032 | 24 | 241 | 0.0 | 0.0 | 0.00 | 0.00 | 0.00 | 88 | 1017.9 |
| 20260830111528 | 24 | 238 | 0.0 | 0.0 | 0.00 | 0.00 | 0.00 | 88 | 1017.9 |
| 20260830111024 | 24 | 253 | 0.0 | 1.6 | 0.00 | 0.00 | 0.00 | 88 | 1017.9 |
| 20260830110524 | 24 | 228 | 0.0 | 1.6 | 0.00 | 0.00 | 0.00 | 88 | 1017.9 |
| 20260830110019 | 24 | 220 | 1.6 | 1.6 | 0.00 | 0.00 | 0.00 | 88 | 1017.9 |
| 20260830105514 | 24 | 248 | 0.0 | 0.0 | 0.00 | 0.00 | 0.00 | 87 | 1017.9 |
| 20260830105010 | 24 | 242 | 0.0 | 1.6 | 0.00 | 0.00 | 0.00 | 87 | 1017.9 |
| 20260830104507 | 25 | 229 | 0.0 | 0.0 | 0.00 | 0.00 | 0.00 | 87 | 1017.5 |
| 20260830104002 | 25 | 254 | 0.0 | 0.0 | 0.00 | 0.00 | 0.00 | 86 | 1017.9 |
| 20260830103457 | 25 | 236 | 0.0 | 0.0 | 0.00 | 0.00 | 0.00 | 86 | 1017.5 |
| 20260830102955 | 25 | 200 | 0.0 | 0.0 | 0.00 | 0.00 | 0.00 | 86 | 1017.9 |
| 20260830102450 | 25 | 180 | 0.0 | 1.6 | 0.00 | 0.00 | 0.00 | 86 | 1017.5 |
| 20260830101947 | 25 | 238 | 0.0 | 0.0 | 0.00 | 0.00 | 0.00 | 85 | 1017.5 |
| 20260830101442 | 25 | 228 | 0.0 | 1.6 | 0.00 | 0.00 | 0.00 | 85 | 1017.9 |
| 20260830100941 | 25 | 235 | 1.6 | 3.2 | 0.00 | 0.00 | 0.00 | 85 | 1017.9 |
| 20260830100441 | 25 | 243 | 0.0 | 1.6 | 0.00 | 0.00 | 0.00 | 85 | 1017.5 |
| 20260830095939 | 25 | 252 | 0.0 | 1.6 | 0.00 | 0.00 | 0.00 | 84 | 1017.5 |
| 20260830095435 | 25 | 258 | 0.0 | 0.0 | 0.00 | 0.00 | 0.00 | 84 | 1017.5 |
| 20260830094931 | 25 | 176 | 0.0 | 0.0 | 0.00 | 0.00 | 0.00 | 83 | 1017.5 |
| 20260830094427 | 25 | 255 | 0.0 | 0.0 | 0.00 | 0.00 | 0.00 | 83 | 1017.5 |
| 20260830093923 | 25 | 210 | 3.2 | 3.2 | 0.00 | 0.00 | 0.00 | 83 | 1017.5 |
| 20260830093418 | 25 | 242 | 3.2 | 3.2 | 0.00 | 0.00 | 0.00 | 82 | 1017.5 |
| 20260830092913 | 25 | 228 | 0.0 | 1.6 | 0.00 | 0.00 | 0.00 | 82 | 1017.5 |
| 20260830092409 | 25 | 239 | 1.6 | 1.6 | 0.00 | 0.00 | 0.00 | 82 | 1017.5 |
| 20260830091906 | 25 | 213 | 3.2 | 3.2 | 0.00 | 0.00 | 0.00 | 82 | 1017.5 |
| 20260830091405 | 25 | 250 | 1.6 | 1.6 | 0.00 | 0.00 | 0.00 | 81 | 1017.2 |
| 20260830090904 | 25 | 183 | 3.2 | 3.2 | 0.00 | 0.00 | 0.00 | 81 | 1017.5 |
| 20260830090400 | 25 | 198 | 1.6 | 1.6 | 0.00 | 0.00 | 0.00 | 81 | 1017.5 |
| 20260830085900 | 25 | 233 | 1.6 | 1.6 | 0.00 | 0.00 | 0.00 | 81 | 1017.9 |
| 20260830085354 | 25 | 235 | 0.0 | 0.0 | 0.00 | 0.00 | 0.00 | 80 | 1017.9 |
| 20260830084851 | 26 | 167 | 0.0 | 0.0 | 0.00 | 0.00 | 0.00 | 80 | 1017.5 |
| 20260830084346 | 26 | 224 | 0.0 | 1.6 | 0.00 | 0.00 | 0.00 | 80 | 1017.5 |
| 20260830083841 | 25 | 216 | 3.2 | 3.2 | 0.00 | 0.00 | 0.00 | 80 | 1017.5 |
| 20260830083337 | 25 | 262 | 1.6 | 1.6 | 0.00 | 0.00 | 0.00 | 80 | 1017.9 |
| 20260830082836 | 26 | 227 | 1.6 | 1.6 | 0.00 | 0.00 | 0.00 | 80 | 1017.5 |
| 20260830082331 | 26 | 222 | 1.6 | 3.2 | 0.00 | 0.00 | 0.00 | 79 | 1017.5 |
| 20260830081827 | 26 | 241 | 0.0 | 1.6 | 0.00 | 0.00 | 0.00 | 78 | 1017.5 |
| 20260830081326 | 26 | 213 | 1.6 | 3.2 | 0.00 | 0.00 | 0.00 | 78 | 1017.9 |
| 20260830080821 | 26 | 232 | 1.6 | 3.2 | 0.00 | 0.00 | 0.00 | 78 | 1017.9 |
| 20260830080318 | 26 | 259 | 0.0 | 0.0 | 0.00 | 0.00 | 0.00 | 77 | 1017.9 |
| 20260830075817 | 26 | 212 | 4.8 | 8.0 | 0.00 | 0.00 | 0.00 | 77 | 1017.9 |
| 20260830075313 | 26 | 243 | 1.6 | 3.2 | 0.00 | 0.00 | 0.00 | 77 | 1017.9 |
| 20260830074807 | 26 | 249 | 3.2 | 3.2 | 0.00 | 0.00 | 0.00 | 76 | 1017.9 |
| 20260830074303 | 26 | 240 | 1.6 | 1.6 | 0.00 | 0.00 | 0.00 | 76 | 1017.9 |
| 20260830073759 | 26 | 173 | 3.2 | 3.2 | 0.00 | 0.00 | 0.00 | 76 | 1017.9 |
| 20260830073254 | 26 | 262 | 1.6 | 1.6 | 0.00 | 0.00 | 0.00 | 76 | 1017.9 |
| 20260830072748 | 27 | 167 | 4.8 | 4.8 | 0.00 | 0.00 | 0.00 | 75 | 1017.9 |
| 20260830072244 | 27 | 219 | 4.8 | 4.8 | 0.00 | 0.00 | 0.00 | 75 | 1017.9 |
| 20260830071739 | 27 | 222 | 3.2 | 3.2 | 0.00 | 0.00 | 0.00 | 74 | 1017.9 |
| 20260830071238 | 27 | 214 | 1.6 | 3.2 | 0.00 | 0.00 | 0.00 | 74 | 1018.2 |
| 20260830070737 | 27 | 126 | 1.6 | 3.2 | 0.00 | 0.00 | 0.00 | 74 | 1018.2 |
| 20260830070232 | 27 | 229 | 1.6 | 1.6 | 0.00 | 0.00 | 0.00 | 73 | 1018.2 |
| 20260830065731 | 27 | 184 | 4.8 | 8.0 | 0.00 | 0.00 | 0.00 | 73 | 1018.2 |
| 20260830065226 | 27 | 228 | 1.6 | 3.2 | 0.00 | 0.00 | 0.00 | 73 | 1018.2 |
| 20260830064724 | 27 | 205 | 1.6 | 3.2 | 0.00 | 0.00 | 0.00 | 73 | 1018.2 |
| 20260830064220 | 27 | 217 | 1.6 | 3.2 | 0.00 | 0.00 | 0.00 | 72 | 1018.2 |
| 20260830063714 | 27 | 239 | 1.6 | 1.6 | 0.00 | 0.00 | 0.00 | 72 | 1017.9 |
| 20260830063213 | 27 | 231 | 0.0 | 1.6 | 0.00 | 0.00 | 0.00 | 72 | 1018.2 |
| 20260830062708 | 27 | 223 | 0.0 | 1.6 | 0.00 | 0.00 | 0.00 | 71 | 1018.2 |
| 20260830062203 | 27 | 158 | 1.6 | 1.6 | 0.00 | 0.00 | 0.00 | 71 | 1017.9 |
| 20260830061702 | 27 | 245 | 3.2 | 3.2 | 0.00 | 0.00 | 0.00 | 71 | 1018.2 |
| 20260830061158 | 28 | 207 | 4.8 | 8.0 | 0.00 | 0.00 | 0.00 | 71 | 1017.9 |
| 20260830060655 | 28 | 297 | 1.6 | 1.6 | 0.00 | 0.00 | 0.00 | 71 | 1017.9 |
| 20260830060151 | 28 | 134 | 3.2 | 3.2 | 0.00 | 0.00 | 0.00 | 71 | 1017.9 |
| 20260830055646 | 28 | 244 | 1.6 | 3.2 | 0.00 | 0.00 | 0.00 | 70 | 1017.9 |
| 20260830055143 | 28 | 183 | 0.0 | 1.6 | 0.00 | 0.00 | 0.00 | 70 | 1017.9 |
| 20260830054637 | 28 | 109 | 1.6 | 3.2 | 0.00 | 0.00 | 0.00 | 69 | 1017.9 |
| 20260830054132 | 28 | 223 | 4.8 | 4.8 | 0.00 | 0.00 | 0.00 | 69 | 1017.5 |
| 20260830053628 | 28 | 203 | 3.2 | 3.2 | 0.00 | 0.00 | 0.00 | 69 | 1017.9 |
| 20260830053127 | 28 | 207 | 3.2 | 3.2 | 0.00 | 0.00 | 0.00 | 69 | 1017.9 |
| 20260830052623 | 28 | 255 | 4.8 | 8.0 | 0.00 | 0.00 | 0.00 | 69 | 1017.9 |
| 20260830052118 | 28 | 181 | 3.2 | 4.8 | 0.00 | 0.00 | 0.00 | 69 | 1017.9 |
| 20260830051613 | 28 | 231 | 3.2 | 3.2 | 0.00 | 0.00 | 0.00 | 69 | 1017.9 |
| 20260830051109 | 28 | 253 | 0.0 | 1.6 | 0.00 | 0.00 | 0.00 | 69 | 1017.9 |
| 20260830050607 | 28 | 249 | 0.0 | 1.6 | 0.00 | 0.00 | 0.00 | 69 | 1017.9 |
| 20260830045555 | 29 | 193 | 0.0 | 1.6 | 0.00 | 0.03 | 0.03 | 67 | 1017.5 |
| 20260830045050 | 30 | 253 | 0.0 | 0.0 | 0.00 | 0.03 | 0.03 | 67 | 1017.5 |
| 20260830044544 | 30 | 201 | 3.2 | 4.8 | 0.00 | 0.03 | 0.03 | 67 | 1017.5 |
| 20260830044039 | 30 | 252 | 1.6 | 1.6 | 0.00 | 0.03 | 0.03 | 66 | 1017.9 |
| 20260830043535 | 30 | 161 | 3.2 | 3.2 | 0.00 | 0.03 | 0.03 | 66 | 1017.9 |
| 20260830043033 | 30 | 165 | 3.2 | 4.8 | 0.00 | 0.03 | 0.03 | 66 | 1017.5 |
| 20260830042531 | 30 | 273 | 1.6 | 3.2 | 0.00 | 0.03 | 0.03 | 66 | 1017.9 |
| 20260830042027 | 30 | 221 | 3.2 | 3.2 | 0.00 | 0.03 | 0.03 | 65 | 1017.9 |
| 20260830041526 | 30 | 245 | 1.6 | 3.2 | 0.00 | 0.03 | 0.03 | 65 | 1017.5 |
| 20260830041025 | 30 | 218 | 4.8 | 8.0 | 0.00 | 0.03 | 0.03 | 65 | 1017.9 |
| 20260830040521 | 30 | 240 | 0.0 | 1.6 | 0.00 | 0.03 | 0.03 | 65 | 1017.9 |
| 20260830040016 | 30 | 237 | 3.2 | 4.8 | 0.00 | 0.03 | 0.03 | 64 | 1017.5 |
| 20260830035514 | 30 | 235 | 3.2 | 3.2 | 0.00 | 0.03 | 0.03 | 64 | 1017.9 |
| 20260830035010 | 30 | 224 | 1.6 | 1.6 | 0.00 | 0.03 | 0.03 | 63 | 1017.9 |
| 20260830034506 | 31 | 209 | 3.2 | 4.8 | 0.00 | 0.03 | 0.03 | 63 | 1017.5 |
| 20260830034005 | 31 | 193 | 3.2 | 4.8 | 0.00 | 0.03 | 0.03 | 63 | 1017.5 |
| 20260830033500 | 31 | 172 | 4.8 | 4.8 | 0.00 | 0.03 | 0.03 | 63 | 1017.5 |
| 20260830032955 | 31 | 258 | 1.6 | 1.6 | 0.00 | 0.03 | 0.03 | 63 | 1017.5 |
| 20260830032454 | 31 | 160 | 3.2 | 3.2 | 0.00 | 0.03 | 0.03 | 63 | 1017.5 |
| 20260830031949 | 31 | 207 | 4.8 | 8.0 | 0.00 | 0.03 | 0.03 | 62 | 1017.5 |
| 20260830031445 | 31 | 211 | 1.6 | 3.2 | 0.00 | 0.03 | 0.03 | 62 | 1017.2 |
| 20260830030940 | 31 | 202 | 4.8 | 4.8 | 0.00 | 0.03 | 0.03 | 62 | 1017.2 |